Location: Barrialito
(9.8982°N, 67.7750°W)
Time: 10:35:36
(UTC+00:00)

USA 229 - Pass Details

Date: 18 April 2024
Orbit: 890 x 1322 km, 63.4° (Epoch: 15 May)

Event Time Altitude Azimuth Distance (km) Brightness Sun altitude
Rises 23:15:09 0° 186° (S) 3,507 6.3 -8.9°
Reaches altitude 10° 23:17:51 10° 177° (S) 2,552 5.5 -9.5°
Maximum altitude 23:23:10 36° 112° (ESE) 1,371 3.8 -10.8°
Drops below altitude 10° 23:28:34 10° 46° (NE) 2,600 5.4 -12.1°
Sets 23:31:20 0° 38° (NE) 3,582 6.2 -12.8°
